Location: Bois de la Silve
(44.4667°N, 6.7833°E)
Time: 08:24:12
(UTC+00:00)

Nadezhda 4 Rocket - Pass Details

Date: 14 July 2020
Orbit: 950 x 991 km, 82.9° (Epoch: 14 August)

Event Time Altitude Azimuth Distance (km) Brightness Sun altitude
Rises 03:05:40 0° 352° (N) 3,712 7.6 -8.8°
Reaches altitude 10° 03:08:11 10° 352° (N) 2,762 6.9 -8.5°
Maximum altitude 03:14:34 87° 84° (E) 999 4.1 -7.6°
Drops below altitude 10° 03:20:53 10° 173° (S) 2,743 6.1 -6.8°
Sets 03:23:23 0° 173° (S) 3,685 6.7 -6.4°
